Weather History for New Orleans Lakefront, LA

Change the Weather History Date:

Thursday, July 25, 2013

  Actual Average Record
Temperature  
Mean Temperature 85 °F 83 °F  
Max Temperature 91 °F 92 °F 98 °F (2005)
Min Temperature 78 °F 75 °F 70 °F (1984)
Degree Days  
Heating Degree Days 0 0  
Month to date heating degree days 0 0  
Since 1 June heating degree days 0 0  
Since 1 July heating degree days 0 0  
Cooling Degree Days 20 18  
Month to date cooling degree days 432 450  
Year to date cooling degree days 1466 1564  
Since 1 June cooling degree days 973 945  
Growing Degree Days 35 (Base 50)    
Moisture  
Dew Point 75 °F    
Average Humidity 74    
Maximum Humidity 91    
Minimum Humidity 56    
Precipitation  
Precipitation 0.00 in 0.17 in 2.34 in (2011)
Month to date precipitation 3.90 4.85  
Year to date precipitation 43.02 37.15  
Snow  
Snow 0.00 in - - ()
Month to date snowfall 0.0  
Since 1 June snowfall 0.0  
Since 1 July snowfall 0.0  
Snow Depth 0.00 in    
Sea Level Pressure  
Sea Level Pressure 29.98 in    
Wind  
Wind Speed 7 mph (WNW)    
Max Wind Speed 14 mph    
Max Gust Speed 21 mph    
Visibility 10 miles    
Events      
T = Trace of Precipitation, MM = Missing Value Source: NWS Daily Summary

Daily Weather History Graph

Daily Weather History Graph

Search for Another Location

Airport:

Trip Planner

Search our weather history database for the weather conditions in past years. The results will help you decide how hot, cold, wet, or windy it might be!

Date:

Astronomy

Jul. 25, 2013 Rise Set
Actual Time 6:15 AM CDT 7:57 PM CDT
Civil Twilight 5:48 AM CDT 8:24 PM CDT
Nautical Twilight 5:16 AM CDT 8:55 PM CDT
Astronomical Twilight 4:43 AM CDT 9:29 PM CDT
Moon 10:00 PM CDT (7/25) 9:25 AM CDT (7/25)
Length of Visible Light 14h 35m
Length of Day
13h 42m
Waning Gibbous, 88% of the Moon is Illuminated
Jul 25
Waning Gibbous
Jul 29
Last Quarter
Aug 6
New
Aug 14
First Quarter
Aug 20
Full

Hourly Weather History & Observations

Time (CDT) Temp. Heat Index Dew Point Humidity Pressure Visibility Wind Dir Wind Speed Gust Speed Precip Events Conditions
12:53 AM 82.9 °F 92.8 °F 78.1 °F 85% 29.91 in 9.0 mi West 15.0 mph - N/A   Partly Cloudy
1:53 AM 82.9 °F 92.8 °F 78.1 °F 85% 29.90 in 9.0 mi West 19.6 mph - N/A   Overcast
2:53 AM 82.9 °F 92.8 °F 78.1 °F 85% 29.90 in 8.0 mi West 20.7 mph - N/A   Clear
3:53 AM 82.9 °F 92.8 °F 78.1 °F 85% 29.91 in 8.0 mi West 18.4 mph - N/A   Overcast
4:42 AM 82.4 °F 90.9 °F 77.0 °F 84% 29.94 in 10.0 mi NW 15.0 mph - N/A   Mostly Cloudy
4:53 AM 82.9 °F 91.8 °F 77.0 °F 82% 29.93 in 10.0 mi NW 16.1 mph - N/A   Mostly Cloudy
5:53 AM 82.0 °F 88.6 °F 75.0 °F 79% 29.94 in 10.0 mi NW 15.0 mph - N/A   Overcast
6:09 AM 82.4 °F 88.2 °F 73.4 °F 74% 29.97 in 10.0 mi NW 17.3 mph - N/A   Overcast
6:49 AM 80.6 °F 86.2 °F 75.2 °F 84% 29.97 in 10.0 mi NNW 16.1 mph - N/A   Scattered Clouds
6:53 AM 80.1 °F 85.1 °F 75.0 °F 85% 29.95 in 10.0 mi NNW 15.0 mph - N/A   Scattered Clouds
7:53 AM 81.0 °F 86.7 °F 75.0 °F 82% 29.97 in 10.0 mi NNW 13.8 mph - N/A   Scattered Clouds
8:53 AM 82.0 °F 88.6 °F 75.0 °F 79% 30.00 in 10.0 mi NNW 10.4 mph - N/A   Scattered Clouds
9:53 AM 82.0 °F 87.9 °F 73.9 °F 76% 30.02 in 10.0 mi NW 8.1 mph - N/A   Scattered Clouds
10:53 AM 82.9 °F 89.4 °F 73.9 °F 74% 30.03 in 10.0 mi NW 6.9 mph - N/A   Mostly Cloudy
11:53 AM 84.9 °F 93.3 °F 75.0 °F 72% 30.03 in 10.0 mi NW 6.9 mph - N/A   Mostly Cloudy
12:53 PM 86.0 °F 95.1 °F 75.0 °F 70% 30.03 in 10.0 mi WNW 6.9 mph - N/A   Clear
1:53 PM 86.0 °F 96.0 °F 75.9 °F 72% 30.02 in 10.0 mi West 8.1 mph - N/A   Clear
2:53 PM 88.0 °F 97.5 °F 75.0 °F 65% 29.99 in 10.0 mi West 8.1 mph - N/A   Clear
3:53 PM 89.1 °F 100.2 °F 75.9 °F 65% 29.99 in 10.0 mi West 8.1 mph - N/A   Partly Cloudy
4:53 PM 89.1 °F 99.1 °F 75.0 °F 63% 29.98 in 10.0 mi West 10.4 mph - N/A   Clear
5:53 PM 90.0 °F 100.2 °F 75.0 °F 61% 29.98 in 10.0 mi West 8.1 mph - N/A   Clear
6:53 PM 89.1 °F 99.1 °F 75.0 °F 63% 29.99 in 10.0 mi West 6.9 mph - N/A   Clear
7:53 PM 88.0 °F 96.5 °F 73.9 °F 63% 29.98 in 10.0 mi Calm Calm - N/A   Clear
8:53 PM 88.0 °F 96.5 °F 73.9 °F 63% 29.99 in 10.0 mi Calm Calm - N/A   Clear
9:53 PM 88.0 °F 95.6 °F 73.0 °F 61% 29.99 in 10.0 mi Calm Calm - N/A   Clear
10:53 PM 87.1 °F 94.5 °F 73.0 °F 63% 30.01 in 10.0 mi Calm Calm - N/A   Scattered Clouds
11:53 PM 84.9 °F 92.1 °F 73.9 °F 69% 30.01 in 10.0 mi SSW 3.5 mph - N/A   Mostly Cloudy